ROMMA est une association bénévole à but non lucratif. Votre soutien est indispensable : ADHERER à ROMMA ou FAIRE un DON

Chambon - (38, Isère)

Oisans (2460 m)   Longitude: 06° 10' 42" E   Latitude: 45° 01' 32" N Station partenaire n°803
 

Détail journalier du     <<     >>

Température Humidité Vent Dir Rafale Dir. rafale Neige 1 Neige 2
Heure (°C) (%) (km/h) (km/h) (cm) (cm)
01:00 5.18615S53S03
02:00 5.08711S42SSO02
03:00 4.39114SSO40SSO03
04:00 4.3895N26SSO03
05:00 4.4862N8N03
06:00 4.3873N9N02
07:00 4.6865SSO18SSO02
08:00 4.2905NNE15SE03
09:00 4.2906NNE15OSO03
10:00 4.2938NNE23NE03
11:00 5.59112NE49NE04
12:00 6.28414NE38NE04
13:00 6.48118NE42NE04
14:00 7.17513NE42NE04
15:00 6.97313NE45NE04
16:00 7.17118NE56NE04
17:00 6.47825NE58NE04
18:00 6.38015ENE56ENE04
19:00 6.08118ENE58ENE03
20:00 5.88424NE54NE04
21:00 6.08222NE55NE03
22:00 5.28625NE59NE04
23:00 5.28426NNE56NE04
minuit 5.77917NNE46NE03

Graphique du 22-10-2019

 

Serveur OMMA